Vorticity
7 14 14 16 12 9 9 9 9 8 9 11 13 16 10 8 7 15 13 11 12 14 12 13 13 12 12 12 11 11 10 10 11 12 13 13 17 16 15 16 19 17 20
12 14 14 14 10 9 9 9 9 9 10 12 17 12 7 6 13 13 11 11 16 15 12 11 12 12 12 12 12 13 13 13 12 13 17 13 15 15 17 16 18 16 16
13 13 14 12 10 9 9 9 8 9 11 19 13 7 5 9 13 12 9 14 14 13 11 11 11 11 13 13 15 15 13 15 16 14 13 14 16 14 15 16 17 17 15
12 14 14 12 9 9 9 8 9 10 16 15 7 6 7 13 12 11 9 14 16 16 11 11 12 13 13 14 17 17 18 17 16 14 12 15 11 15 16 15 17 19 15
12 14 13 9 9 8 8 9 9 13 16 10 8 6 9 13 11 10 11 12 17 14 11 12 13 14 15 15 15 16 17 17 16 14 12 16 15 14 14 17 13 17 17
14 16 10 9 8 9 8 8 10 13 16 10 8 6 11 12 12 12 12 10 15 14 13 13 13 13 14 15 15 16 15 13 12 14 15 16 16 17 16 16 13 16 13
16 12 9 8 9 8 8 9 11 14 16 10 7 6 11 13 13 14 12 9 11 11 13 14 15 13 13 15 15 17 15 15 14 14 14 16 17 16 16 15 15 17 15
15 10 8 9 8 8 10 9 11 15 15 10 7 6 10 14 14 15 12 9 9 12 11 12 14 15 13 14 16 17 17 14 10 10 14 18 18 15 15 15 16 18 18
12 9 8 8 7 10 9 9 11 13 15 10 7 6 7 16 14 15 11 11 11 11 12 15 16 16 16 13 15 15 15 12 11 13 16 18 17 16 13 12 16 17 19
9 9 8 7 9 10 9 9 9 13 14 11 8 7 6 12 15 14 12 13 12 10 10 11 13 16 16 16 15 15 14 13 12 13 15 17 18 15 11 10 19 17 13
9 9 7 8 10 8 9 8 9 12 17 12 9 9 7 7 15 14 13 13 12 9 8 7 8 13 16 15 14 14 15 13 13 13 12 18 19 16 13 11 13 16 24
10 7 8 9 8 9 9 8 9 11 17 16 12 10 10 7 14 15 13 12 11 10 9 9 9 11 15 16 15 12 12 13 12 13 12 15 19 16 15 10 14 9 8
8 8 9 9 8 9 8 9 9 10 13 17 15 12 10 10 13 15 14 10 10 11 12 13 12 13 15 21 14 14 12 13 12 13 14 14 16 16 14 11 9 5 7
7 9 10 8 8 9 8 9 8 9 12 15 17 16 12 11 10 18 14 11 11 12 15 14 11 14 16 18 19 15 15 15 14 12 13 13 13 14 18 14 10 7 7
9 9 8 9 9 9 9 9 8 7 7 11 15 16 15 11 8 9 14 14 10 13 14 16 14 15 18 17 19 16 14 14 14 12 11 12 16 13 16 14 16 13 9
8 7 7 9 9 9 10 9 8 8 8 6 9 11 13 14 11 8 8 14 13 12 14 14 11 13 18 17 17 19 18 15 13 15 12 12 14 16 14 12 12 12 12
7 5 7 7 8 8 9 11 9 8 8 7 7 6 12 14 14 11 9 10 11 10 11 10 8 8 12 16 16 17 20 17 15 14 13 13 12 15 15 14 12 11 13
6 6 8 8 8 7 9 10 10 9 8 7 7 7 7 12 15 16 13 12 12 10 10 8 6 8 10 11 17 17 20 21 17 14 13 11 12 14 15 14 15 18 19
7 7 9 9 9 8 8 9 9 10 9 8 8 8 7 8 9 14 19 19 13 11 10 11 12 10 10 9 9 17 19 19 19 18 16 14 13 14 14 13 16 18 16
8 8 9 9 9 9 9 9 8 8 10 10 9 9 8 8 8 8 10 14 18 16 13 10 10 11 11 10 9 7 11 20 22 22 21 18 16 14 14 14 13 12 13
8 8 9 9 9 10 9 10 10 9 8 9 10 10 9 10 9 8 8 7 9 12 15 16 14 11 10 12 9 11 10 6 11 16 22 19 20 19 15 16 14 12 12
8 8 9 9 9 10 9 10 11 10 9 9 8 9 10 9 9 9 9 8 8 7 9 10 13 17 16 13 12 11 13 12 10 9 11 14 18 18 19 20 21 20 18
8 8 8 8 8 8 8 9 10 11 10 10 10 9 8 10 10 10 10 10 9 8 8 8 7 8 9 12 15 16 14 12 11 10 9 11 14 14 17 18 16 15 16
7 7 7 7 7 8 9 9 9 10 10 11 11 10 10 9 9 10 10 10 10 10 10 9 8 8 8 8 8 8 9 12 15 16 14 13 11 8 7 7 8 9 8
7 6 6 6 7 8 8 9 10 11 11 10 11 11 11 10 10 9 9 10 10 10 10 10 10 9 9 9 10 10 8 9 10 10 10 10 12 14 15 14 13 12 11
7 7 6 7 7 7 7 7 8 8 10 12 12 11 11 11 10 10 9 9 9 10 10 10 10 10 10 10 10 10 10 11 10 8 8 8 9 9 8 7 7 8 10
Height
3083 3077 3071 3065 3060 3054 3049 3043 3037 3031 3025 3019 3012 3007 3001 2996 2990 2983 2977 2971 2965 2960 2954 2949 2945 2941 2938 2935 2932 2930 2929 2928 2926 2928 2927 2927 2929 2930 2932 2937 2943 2950 2957
3079 3073 3067 3062 3058 3052 3046 3040 3034 3028 3022 3016 3010 3005 2999 2993 2987 2980 2974 2968 2962 2956 2950 2945 2942 2938 2934 2931 2928 2926 2924 2923 2922 2922 2923 2923 2924 2926 2928 2933 2939 2946 2952
3075 3069 3064 3059 3055 3050 3044 3038 3032 3026 3020 3014 3008 3003 2997 2991 2984 2978 2972 2965 2959 2953 2947 2942 2939 2935 2931 2927 2924 2922 2919 2918 2918 2918 2919 2919 2920 2921 2925 2930 2936 2942 2947
3072 3066 3062 3057 3053 3048 3042 3036 3030 3025 3018 3012 3007 3002 2996 2989 2982 2976 2970 2963 2956 2950 2945 2940 2936 2931 2927 2923 2920 2918 2916 2914 2914 2915 2916 2916 2917 2918 2921 2926 2932 2938 2943
3069 3064 3060 3056 3052 3047 3041 3035 3029 3023 3017 3011 3006 3001 2994 2987 2980 2974 2968 2962 2956 2949 2944 2939 2934 2929 2925 2921 2917 2915 2913 2912 2911 2912 2913 2914 2915 2916 2919 2923 2928 2935 2942
3067 3063 3059 3055 3050 3045 3040 3035 3029 3022 3015 3011 3006 3000 2994 2986 2980 2974 2968 2961 2955 2949 2943 2938 2933 2928 2923 2919 2916 2913 2911 2910 2910 2910 2911 2912 2914 2916 2918 2922 2926 2932 2939
3067 3062 3058 3054 3050 3044 3040 3035 3028 3021 3015 3011 3006 3000 2994 2987 2981 2974 2968 2962 2956 2949 2944 2938 2933 2927 2923 2918 2915 2913 2911 2910 2910 2910 2910 2911 2913 2915 2918 2922 2926 2931 2938
3067 3063 3059 3054 3049 3045 3041 3035 3027 3021 3016 3011 3006 3001 2994 2988 2981 2975 2969 2963 2957 2951 2945 2939 2933 2928 2923 2919 2915 2913 2911 2911 2910 2910 2910 2911 2913 2915 2919 2923 2927 2931 2938
3064 3064 3059 3055 3049 3046 3041 3034 3027 3021 3016 3012 3007 3001 2995 2989 2982 2976 2970 2965 2959 2952 2946 2940 2934 2928 2924 2920 2916 2914 2912 2912 2911 2911 2911 2911 2913 2916 2919 2923 2927 2931 2937
3065 3064 3059 3054 3051 3047 3042 3035 3028 3022 3017 3012 3007 3002 2996 2990 2983 2977 2972 2967 2961 2955 2949 2943 2936 2930 2925 2921 2918 2916 2914 2913 2913 2912 2911 2912 2914 2917 2920 2924 2928 2932 2936
3065 3063 3059 3055 3053 3047 3042 3036 3030 3024 3019 3013 3008 3003 2998 2992 2985 2979 2974 2969 2963 2957 2951 2945 2938 2933 2928 2924 2921 2918 2916 2915 2915 2914 2913 2914 2916 2918 2921 2925 2929 2933 2937
3066 3062 3059 3057 3052 3048 3043 3038 3033 3027 3021 3015 3010 3006 3000 2994 2988 2982 2977 2971 2965 2960 2953 2946 2940 2936 2931 2927 2923 2921 2919 2918 2917 2917 2916 2917 2918 2920 2923 2926 2930 2934 2938
3064 3062 3060 3058 3053 3050 3044 3041 3036 3030 3023 3017 3012 3008 3003 2998 2991 2985 2980 2974 2968 2962 2956 2950 2945 2940 2935 2931 2927 2924 2923 2922 2921 2920 2920 2920 2921 2922 2925 2928 2931 2935 2939
3064 3063 3061 3058 3055 3051 3047 3043 3038 3033 3027 3021 3015 3010 3006 3001 2996 2990 2984 2978 2973 2967 2962 2956 2950 2944 2939 2935 2931 2929 2927 2926 2925 2924 2924 2925 2925 2927 2929 2931 2935 2937 2940
3065 3064 3061 3058 3056 3052 3049 3045 3040 3036 3030 3025 3019 3013 3009 3004 2997 2991 2987 2982 2977 2972 2967 2963 2958 2951 2945 2940 2936 2933 2931 2930 2929 2929 2928 2929 2930 2931 2932 2934 2936 2939 2942
3066 3064 3063 3060 3057 3054 3051 3047 3043 3039 3034 3029 3023 3017 3011 3006 3002 2997 2993 2988 2983 2978 2974 2968 2962 2957 2951 2946 2942 2939 2937 2936 2934 2934 2934 2934 2935 2935 2936 2938 2940 2942 2944
3067 3065 3064 3062 3059 3057 3053 3050 3046 3042 3037 3032 3027 3022 3017 3011 3007 3002 2999 2994 2990 2986 2980 2974 2969 2964 2958 2953 2949 2946 2943 2942 2940 2940 2939 2940 2940 2940 2941 2942 2943 2945 2947
3067 3066 3065 3063 3061 3059 3056 3052 3049 3045 3040 3035 3031 3028 3023 3018 3013 3008 3004 3001 2997 2991 2986 2981 2976 2971 2967 2962 2957 2954 2951 2949 2947 2945 2945 2945 2946 2946 2947 2948 2949 2950 2951
3068 3067 3066 3064 3062 3060 3058 3055 3051 3047 3043 3039 3036 3033 3028 3024 3019 3015 3011 3007 3001 2996 2991 2987 2982 2978 2974 2970 2966 2963 2959 2956 2954 2952 2951 2951 2952 2952 2953 2953 2954 2955 2956
3069 3068 3067 3066 3063 3061 3059 3057 3053 3050 3047 3043 3040 3037 3033 3030 3026 3022 3016 3011 3007 3002 2998 2994 2989 2986 2982 2978 2975 2972 2969 2966 2963 2960 2958 2958 2958 2959 2959 2959 2960 2961 2962
3069 3069 3068 3067 3065 3063 3060 3059 3056 3053 3050 3047 3043 3040 3037 3034 3030 3026 3022 3018 3014 3010 3005 3000 2997 2993 2990 2987 2984 2981 2979 2975 2972 2970 2968 2967 2966 2966 2966 2966 2967 2968 2970
3070 3070 3069 3068 3066 3064 3062 3060 3058 3055 3052 3049 3046 3043 3040 3037 3034 3031 3028 3024 3021 3017 3013 3009 3005 3001 2997 2995 2992 2990 2988 2986 2983 2980 2978 2976 2975 2974 2974 2974 2975 2976 2976
3070 3071 3070 3069 3068 3066 3064 3062 3059 3057 3055 3052 3049 3047 3044 3041 3038 3035 3032 3029 3026 3023 3021 3017 3014 3010 3007 3003 3000 2997 2996 2995 2992 2990 2989 2988 2987 2987 2986 2985 2985 2985 2986
3070 3071 3071 3070 3069 3067 3066 3064 3061 3059 3057 3054 3052 3049 3046 3044 3041 3039 3036 3033 3031 3029 3026 3024 3021 3018 3015 3012 3009 3006 3004 3003 3001 2999 2998 2997 2997 2997 2997 2997 2997 2997 2997
3070 3070 3070 3070 3070 3068 3067 3065 3063 3061 3059 3056 3054 3051 3049 3046 3044 3042 3040 3037 3035 3033 3031 3029 3027 3025 3022 3020 3017 3015 3012 3011 3009 3008 3007 3007 3006 3006 3006 3006 3006 3007 3007
3070 3070 3070 3070 3070 3069 3068 3067 3065 3063 3061 3058 3056 3053 3051 3049 3047 3045 3043 3041 3038 3037 3035 3033 3031 3029 3028 3026 3024 3022 3020 3018 3017 3016 3016 3015 3016 3016 3016 3015 3015 3015 3016